Retour au catalogue

CZ-4B DEB

ActifLEO
NORAD 43430·DEBRIS·🇨🇳 China

Lancé Jun 15, 2017 depuis Jiuquan Satellite Launch Center

Loading…

Prochains Passages (prochaines 24 heures)

TLE

FraisSource: Space-Track

Époque: Sep 14, 2026, 13:09 UTC

1 43430U 17034F   26257.54830759  .00006869  00000-0  52029-3 0  9992
2 43430  42.9911 333.2777 0120760  15.6831 344.7701 14.97152901489774

Suivez CZ-4B DEB en temps réel avec AllMySat

Download on the App Store